星链-2012 (STARLINK-2012 )

导读 | 星芒AI

STARLINK-2012 是 SpaceX Starlink 项目中的一颗低轨通信卫星,属于第二代 Starlink 卫星星座的一部分。该卫星于2022年发射,旨在为全球提供高速、低延迟的互联网服务。相比第一代卫星,STARLINK-2012 采用更先进的激光通信技术和改进的推进系统,提高了数据传输效率和轨道调整能力。其部署进一步增强了 Starlink 网络的覆盖范围和稳定性,支持更多用户接入服务,尤其在偏远和网络基础设施薄弱的地区。

基本信息
目录编号:
47635
目录名称:
STARLINK-2012
国际标识:
2021-012R
轨道中心:
EARTH
卫星名称:
星链-2012
卫星全名:
星链-2012 (STARLINK-2012 )
卫星状态:
已陨落 最后检测时间 2025-01-27
发射日期:
2021-02-16 UTC
国别 :
美国 (US)
星等 :
--
轨道信息
数据来源 国际轨道数据
星历时间: 2025-01-28T00:15:29+0800
轨道信息已过期275天
半长轴: 6537.327km
偏心率: 0.00026
轨道倾角: 53.021°
近地点辐角 170.418°
升交点赤经 329.141°
平近点角 330.190°
近地点: 157.492km
远地点: 160.892km
周期: 87.672分钟
每日圈数: 16.424891
详细信息
固有亮度:
5
最大亮度:
2.5
卫星平台:
Starlink V1.0
覆盖范围:
全球
运营商:
太空探索技术公司
运营商所在国:
美国
制造商(研发单位):
太空探索技术公司
制造商所在国:
美国
使用方式:
暂无
卫星简介
星链(Starlink)计划是由太空探索技术公司(SpaceX)提出的一个巨型低轨卫星互联网星座项目,计划在2019年至2024年间在太空搭建由约1.2万颗卫星组成的“星链”网络,其中1584颗将部署在地球上空550千米处的近地轨道,并从2020年开始工作。该卫星仍在工作。